CW7229 Weather Reports


Display with metric or nautical units.
time (UTC)temp
F
wind
direction
speed
MPH
gust
MPH
rain 1hr
in
rain 24hr
in
rain mn
in
humidity
%
barometer
mb
20260510213118 59 331 4.0 6.0 0.00 0.00 0.00 43 1004.5
20260510210118 59 303 0.0 3.0 0.00 0.00 0.00 46 1004.5
20260510203118 58 207 3.0 4.0 0.00 0.00 0.00 47 1004.5
20260510193118 60 181 0.0 0.0 0.00 0.00 0.00 43 1005.5
20260510190118 61 201 0.0 0.0 0.00 0.00 0.00 37 1005.4
20260510183118 64 201 0.0 0.0 0.00 0.00 0.00 35 1005.4
20260510180137 65 201 0.0 0.0 0.00 0.00 0.00 33 1005.4
20260510173117 66 201 0.0 0.0 0.00 0.00 0.00 33 1005.3
20260510170137 66 162 1.0 4.0 0.00 0.00 0.00 29 1005.3
20260510163117 67 125 0.0 4.0 0.00 0.00 0.00 28 1006.3
20260510160117 68 141 5.0 6.0 0.00 0.00 0.00 28 1006.3
20260510153117 71 173 4.0 6.0 0.00 0.00 0.00 24 1006.3
20260510150117 72 166 2.0 4.0 0.00 0.00 0.00 22 1007.2
20260510143117 73 279 4.0 5.0 0.00 0.00 0.00 22 1007.2
20260510140117 72 248 3.0 4.0 0.00 0.00 0.00 22 1007.2
20260510133117 70 161 0.0 4.0 0.00 0.00 0.00 23 1008.3
20260510130117 72 171 0.0 4.0 0.00 0.00 0.00 22 1008.2
20260510123117 72 222 3.0 5.0 0.00 0.00 0.00 23 1008.2
20260510120117 73 146 4.0 5.0 0.00 0.00 0.00 23 1009.2
20260510113117 72 61 4.0 6.0 0.00 0.00 0.00 23 1009.3
20260510110117 70 176 5.0 6.0 0.00 0.00 0.00 23 1009.3
20260510100117 69 131 3.0 5.0 0.00 0.00 0.00 26 1010.3
20260510093117 68 170 4.0 6.0 0.00 0.00 0.00 29 1010.4
20260510090117 66 152 4.0 8.0 0.00 0.00 0.00 32 1010.4
20260510080117 60 103 0.0 6.0 0.00 0.00 0.00 37 1011.5
20260510073117 57 75 2.0 5.0 0.00 0.00 0.00 40 1011.6
20260510070117 55 153 4.0 7.0 0.00 0.00 0.00 44 1011.7
20260510063117 52 214 4.0 5.0 0.00 0.00 0.00 50 1011.7
20260510060136 50 151 3.0 6.0 0.00 0.00 0.00 54 1011.8
20260510050136 46 104 0.0 0.0 0.00 0.00 0.00 61 1012.9
20260510043116 46 104 0.0 0.0 0.00 0.00 0.00 60 1012.9
20260510040117 46 104 0.0 0.0 0.00 0.00 0.00 60 1012.9
20260510033116 46 99 0.0 0.0 0.00 0.00 0.00 59 1012.9
20260510030116 45 99 0.0 0.0 0.00 0.00 0.00 58 1012.9
20260510023116 46 99 0.0 0.0 0.00 0.00 0.00 59 1012.9
20260510013116 45 127 0.0 0.0 0.00 0.00 0.00 56 1013.9
20260510010120 45 127 0.0 0.0 0.00 0.00 0.00 55 1013.9
20260510000116 46 140 0.0 0.0 0.00 0.00 0.00 52 1014.9
20260509230116 47 128 0.0 3.0 0.00 0.00 0.00 50 1014.9
20260509220122 49 108 0.0 0.0 0.00 0.00 0.00 48 1015.8